Regional Weather Roundup
Issued by NWS

Home | Current Version | Previous Version | Graphics & Text | Print | Product List | Glossary On
Versions: 1 2 3 4 5 6 7 8 9 10 11 12 13 14 15 16 17 18 19 20 21 22 23 24 25 26 27 28 29 30 31 32 33 34 35 36 37 38 39 40 41 42 43 44 45 46 47 48 49 50
000
ASUS43 KLMK 201210
RWRKY
KENTUCKY REGIONAL WEATHER ROUNDUP
NATIONAL WEATHER SERVICE LOUISVILLE KY
800 AM EDT SAT SEP 20 2014

NOTE "FAIR" INDICATES FEW OR NO CLOUDS BELOW 12,000 FEET
WITH NO SIGNIFICANT WEATHER AND/OR OBSTRUCTIONS TO VISIBILITY.

KYZ001>023-026-027-061>063-070>075-201300-
WESTERN AND SOUTH CENTRAL KENTUCKY

CITY           SKY/WX    TMP DP  RH WIND       PRES   REMARKS
PADUCAH        CLEAR     63  58  83 CALM      30.06R
HENDERSON      CLEAR     59  55  88 S6        30.07R
OWENSBORO      PTCLDY    62  60  93 CALM      30.08R
HOPKINSVILLE   CLEAR     65  65 100 SE2       30.09R
BOWLING GREEN  CLEAR     65  61  87 CALM      30.11R
GLASGOW        MOCLDY    66  61  83 S6        30.12R
$$

KYZ024-025-028>034-038-045-046-053-201300-
NORTH CENTRAL KENTUCKY

CITY           SKY/WX    TMP DP  RH WIND       PRES   REMARKS
LOUISVILLE/SDF PTCLDY    69  62  78 S10       30.08R
LOUISVILLE/LOU PTCLDY    64  60  87 S5        30.09R
FORT KNOX      PTCLDY    65  62  91 S6        30.09R
$$

KYZ035>037-039>044-047>052-055>060-089>105-201300-
NORTHEAST KENTUCKY

CITY           SKY/WX    TMP DP  RH WIND       PRES   REMARKS
LEXINGTON      MOCLDY    66  60  81 S9        30.13R
COVINGTON      PTCLDY    63  59  87 S7        30.10R
FRANKFORT      CLEAR     60  58  92 CALM      30.11R
$$

KYZ054-064>069-076>088-106>120-201300-
SOUTHEAST KENTUCKY

CITY           SKY/WX    TMP DP  RH WIND       PRES   REMARKS
JACKSON        PTCLDY    62  55  77 CALM      30.16R
LONDON         CLEAR     61  55  81 S3        30.17R
SOMERSET       CLOUDY    61  59  94 CALM      30.17R
MIDDLESBORO    CLEAR     60  57  91 W3        30.20S
MONTICELLO     MOSUNNY   66  60  81 CALM      30.16R
$$




USA.gov is the U.S. government's official web portal to all federal, state and local government web resources and services.